���t,����,�O�C���x,�����t���O,�O�C���Ύ��x,�����t���O,���ԉ��x,�����t���O,���ԑ��Ύ��x,�����t���O,�g�C������,�����t���O,�L�b�`�����x,�����t���O,��󒲎����x,�����t���O
2005/3/1,0:00,4,0,66,0,13.3,0,80.5,0,10.5,0,15.9,0,10,0
2005/3/1,0:15,3.9,0,67,0,13,0,78.2,0,10.5,0,16.2,0,10,0
2005/3/1,0:30,3.6,0,69,0,12.8,0,75.6,0,10.6,0,16.1,0,10.2,0
2005/3/1,0:45,3.3,0,70,0,12.6,0,75.3,0,10.6,0,16.4,0,10.3,0
2005/3/1,1:00,3.2,0,71,0,12.6,0,77,0,10.6,0,15.8,0,10.6,0
2005/3/1,1:15,3.2,0,72,0,13.6,0,78.8,0,10.4,0,15.1,0,10.6,0
2005/3/1,1:30,3.2,0,72,0,12.7,0,76.5,0,10.4,0,14.7,0,11.3,0
2005/3/1,1:45,2.9,0,72,0,12,0,73.9,0,10.5,0,14.6,0,11.5,0
2005/3/1,2:00,2.9,0,72,0,10.9,0,75.2,0,10.5,0,15.6,0,11.7,0
2005/3/1,2:15,3,0,72,0,10,0,77.2,0,10.5,0,14.6,0,11.7,0
2005/3/1,2:30,3.1,0,72,0,9.5,0,78.2,0,10.5,0,14.6,0,11.4,0
2005/3/1,2:45,3.1,0,72,0,9.1,0,78.8,0,10.5,0,13.8,0,11.1,0
2005/3/1,3:00,3,0,72,0,8.8,0,79.1,0,10.5,0,13,0,10.9,0
2005/3/1,3:15,3,0,72,0,8.6,0,78.9,0,10.5,0,12.4,0,10.6,0
2005/3/1,3:30,3.1,0,72,0,8.3,0,78.7,0,10.5,0,11.9,0,10.4,0
2005/3/1,3:45,2.9,0,73,0,8.1,0,78.4,0,10.5,0,11.6,0,10.1,0
2005/3/1,4:00,3,0,72,0,8,0,78.3,0,10.5,0,11.3,0,10,0
2005/3/1,4:15,2.8,0,72,0,7.8,0,78.8,0,10.5,0,11,0,9.8,0
2005/3/1,4:30,2.8,0,73,0,7.7,0,78.5,0,10.5,0,10.6,0,9.7,0
2005/3/1,4:45,2.6,0,74,0,7.4,0,78.9,0,10.5,0,10.4,0,9.5,0
2005/3/1,5:00,2.5,0,74,0,7.1,0,78.8,0,10.5,0,10.1,0,9.4,0
2005/3/1,5:15,2.5,0,75,0,6.9,0,79.1,0,10.5,0,9.9,0,9.3,0
2005/3/1,5:30,2.6,0,74,0,6.7,0,79.1,0,10.5,0,9.6,0,9.1,0
2005/3/1,5:45,2.5,0,74,0,6.6,0,79.1,0,10.5,0,9.4,0,9,0
2005/3/1,6:00,2.5,0,74,0,6.5,0,78.7,0,10.4,0,9.3,0,8.9,0
2005/3/1,6:15,2.4,0,74,0,6.4,0,78.3,0,10.4,0,9.1,0,8.7,0
2005/3/1,6:30,2.5,0,75,0,6.3,0,78.3,0,10.4,0,8.9,0,8.6,0
2005/3/1,6:45,2.5,0,75,0,6.1,0,78,0,10.4,0,8.8,0,8.5,0
2005/3/1,7:00,2.3,0,75,0,5.9,0,78.5,0,10.4,0,8.7,0,8.4,0
2005/3/1,7:15,2.2,0,75,0,5.8,0,78,0,10.4,0,8.5,0,8.3,0
2005/3/1,7:30,2.5,0,74,0,5.7,0,78.3,0,10.4,0,8.3,0,8.2,0
2005/3/1,7:45,2.8,0,72,0,5.8,0,77.4,0,10.3,0,8.2,0,8.1,0
2005/3/1,8:00,3.2,0,72,0,6,0,76.1,0,10.3,0,8,0,8,0
2005/3/1,8:15,3.9,0,67,0,8.2,0,74.7,0,10.3,0,7.9,0,7.9,0
2005/3/1,8:30,4.1,0,65,0,9.8,0,70.7,0,10.3,0,7.8,0,7.8,0
2005/3/1,8:45,4.9,0,62,0,10.6,0,72.6,0,10.3,0,7.8,0,7.8,0
2005/3/1,9:00,5.5,0,58,0,11.1,0,73.8,0,10,0,8,0,7.9,0
2005/3/1,9:15,6.6,0,56,0,12.7,0,68.8,0,10,0,9.9,0,8.5,0
2005/3/1,9:30,8,0,50,0,15.1,0,58.5,0,10,0,11,0,8.5,0
2005/3/1,9:45,9.3,0,43,0,20.3,0,44.7,0,9.9,0,11.7,0,8.6,0
2005/3/1,10:00,9.9,0,38,0,23.1,0,35.4,0,10.2,0,12.3,0,8.8,0
2005/3/1,10:15,10,0,32,0,25.6,0,33.9,0,10.1,0,12.5,0,8.9,0
2005/3/1,10:30,10.6,0,31,0,24.6,0,23.2,0,10.3,0,13.1,0,9.6,0
2005/3/1,10:45,11,0,32,0,25.7,0,25,0,10.3,0,13.6,0,9.8,0
2005/3/1,11:00,11.3,0,31,0,25.7,0,25.9,0,10.3,0,14.4,0,9.9,0
2005/3/1,11:15,11.3,0,28,0,26.7,0,26.7,0,10.3,0,14.9,0,10.8,0
2005/3/1,11:30,11.3,0,27,0,27.1,0,26.9,0,10.3,0,14.1,0,10.1,0
2005/3/1,11:45,11.8,0,29,0,25.4,0,28.7,0,10.3,0,14.2,0,10.1,0
2005/3/1,12:00,11.3,0,33,0,23.5,0,31.5,0,10.3,0,14.5,0,10.1,0
2005/3/1,12:15,11,0,32,0,22.7,0,33.4,0,10.2,0,15.7,0,10.2,0
2005/3/1,12:30,11.2,0,34,0,21.2,0,35.6,0,10.2,0,16.5,0,10.1,0
2005/3/1,12:45,10.9,0,35,0,20,0,34.4,0,10.2,0,16.1,0,10.1,0
2005/3/1,13:00,10,0,34,0,19.4,0,36.5,0,10.2,0,16,0,10.3,0
2005/3/1,13:15,10.6,0,32,0,18.9,0,38.5,0,10.2,0,15.8,0,10.4,0
2005/3/1,13:30,9.8,0,30,0,18.3,0,38.7,0,10.2,0,15.2,0,10.2,0
2005/3/1,13:45,10.2,0,29,0,17.8,0,33.7,0,10.3,0,15,0,10.3,0
2005/3/1,14:00,9.9,0,30,0,17.2,0,34,0,10.5,0,15.1,0,10.3,0
2005/3/1,14:15,9.5,0,30,0,16.8,0,36,0,10.5,0,14.7,0,10.2,0
2005/3/1,14:30,10.2,0,31,0,16.1,0,37,0,10.6,0,14.8,0,10.7,0
2005/3/1,14:45,9.8,0,30,0,15.7,0,38.7,0,10.6,0,14.6,0,10.8,0
2005/3/1,15:00,9.5,0,30,0,15.6,0,40.9,0,10.7,0,14.7,0,10.9,0
2005/3/1,15:15,9.1,0,31,0,15.4,0,41.4,0,10.7,0,14.6,0,10.9,0
2005/3/1,15:30,9.2,0,31,0,14.9,0,42,0,10.7,0,14.4,0,10.9,0
2005/3/1,15:45,9.2,0,28,0,14.4,0,40.7,0,10.8,0,14.6,0,11.1,0
2005/3/1,16:00,8.9,0,29,0,14.2,0,41.3,0,10.8,0,14.6,0,11.1,0
2005/3/1,16:15,8.7,0,29,0,13.8,0,39.2,0,10.8,0,14.5,0,11,0
2005/3/1,16:30,8.7,0,30,0,13.4,0,36.6,0,10.8,0,14.2,0,10.8,0
2005/3/1,16:45,8.6,0,31,0,13.4,0,39.3,0,10.9,0,14,0,11,0
2005/3/1,17:00,8.7,0,30,0,13.3,0,42,0,10.9,0,13.8,0,11,0
2005/3/1,17:15,8.4,0,31,0,13.1,0,44.1,0,10.9,0,13.5,0,10.9,0
2005/3/1,17:30,8.2,0,30,0,13,0,46.2,0,11,0,13.5,0,10.7,0
2005/3/1,17:45,8,0,29,0,12.8,0,48.2,0,11,0,13.6,0,10.7,0
2005/3/1,18:00,7.7,0,30,0,12.5,0,49.4,0,11,0,13.6,0,10.7,0
2005/3/1,18:15,7.5,0,30,0,12.2,0,51.6,0,11,0,13.5,0,10.5,0
2005/3/1,18:30,7.1,0,30,0,12.1,0,54.4,0,11.1,0,13.4,0,10.2,0
2005/3/1,18:45,6.8,0,33,0,13.3,0,57.3,0,11.4,0,13.3,0,10,0
2005/3/1,19:00,6.4,0,35,0,13.6,0,59.5,0,11.4,0,13.1,0,9.8,0
2005/3/1,19:15,6.2,0,40,0,13.7,0,60.1,0,11.5,0,13,0,9.6,0
2005/3/1,19:30,6.1,0,41,0,13.5,0,55.7,0,11.5,0,14,0,9.4,0
2005/3/1,19:45,5.7,0,44,0,13.4,0,54.5,0,11.5,0,14.8,0,9.1,0
2005/3/1,20:00,5.3,0,45,0,13.3,0,55.7,0,11.5,0,15.3,0,8.9,0
2005/3/1,20:15,4.9,0,48,0,13.2,0,52.5,0,11.6,0,14.7,0,8.5,0
2005/3/1,20:30,4.8,0,48,0,12.9,0,55.1,0,11.6,0,14.4,0,8.1,0
2005/3/1,20:45,4.5,0,50,0,12.9,0,59.6,0,11.6,0,14.3,0,7.8,0
2005/3/1,21:00,4.4,0,51,0,12.9,0,60.1,0,11.6,0,14.3,0,7.4,0
2005/3/1,21:15,4,0,52,0,13.3,0,65.1,0,11.6,0,14.5,0,7,0
2005/3/1,21:30,3.9,0,53,0,13.1,0,66.7,0,11.6,0,14.5,0,6.6,0
2005/3/1,21:45,3.6,0,54,0,11.6,0,62.9,0,11.6,0,14.4,0,6.4,0
2005/3/1,22:00,3.4,0,55,0,13.8,0,54.4,0,11.6,0,15.2,0,6.9,0
2005/3/1,22:15,3.2,0,56,0,15.1,0,46.6,0,11.6,0,15.7,0,6.9,0
2005/3/1,22:30,3.5,0,52,0,15.2,0,49.7,0,11.2,0,14,0,6,0
2005/3/1,22:45,3.6,0,50,0,14.9,0,52.3,0,11.2,0,13.5,0,5.6,0
2005/3/1,23:00,3.5,0,51,0,14.8,0,54,0,11.2,0,13.5,0,5.5,0
2005/3/1,23:15,3.3,0,51,0,14.9,0,54.5,0,11.2,0,14.4,0,5.8,0
2005/3/1,23:30,3.2,0,51,0,15,0,52,0,11.3,0,15,0,6.1,0
2005/3/1,23:45,3,0,51,0,14.8,0,48.3,0,11.3,0,15.5,0,6.4,0
2005/3/2,0:00,3,0,52,0,14.5,0,49.8,0,10.9,0,15.2,0,5.8,0
2005/3/2,0:15,2.8,0,52,0,14.5,0,48.6,0,10.7,0,15.1,0,6.4,0
2005/3/2,0:30,2.7,0,51,0,14.9,0,51,0,10.7,0,14.6,0,5.7,0
2005/3/2,0:45,2.7,0,52,0,14.8,0,56.5,0,10.6,0,14.2,0,5.2,0
2005/3/2,1:00,2.6,0,51,0,14.6,0,52.9,0,10.6,0,13.5,0,7.5,0
2005/3/2,1:15,2.5,0,53,0,11.5,0,58.9,0,10.6,0,13.3,0,8.8,0
2005/3/2,1:30,2.4,0,55,0,10.3,0,63,0,10.6,0,13.4,0,8.9,0
2005/3/2,1:45,2.3,0,55,0,9.6,0,63.8,0,10.7,0,13.3,0,9.2,0
2005/3/2,2:00,2.2,0,55,0,9,0,64.9,0,10.7,0,12.4,0,9.1,0
2005/3/2,2:15,2.2,0,55,0,8.6,0,66,0,10.7,0,12,0,9,0
2005/3/2,2:30,2.3,0,54,0,8.3,0,66.7,0,10.7,0,11.4,0,8.9,0
2005/3/2,2:45,2.1,0,55,0,8,0,66.8,0,10.7,0,10.9,0,8.8,0
2005/3/2,3:00,2.2,0,56,0,7.7,0,67.4,0,10.7,0,10.5,0,8.7,0
2005/3/2,3:15,2,0,56,0,7.5,0,67.5,0,10.7,0,10.2,0,8.7,0
2005/3/2,3:30,1.8,0,56,0,7.3,0,67.7,0,10.7,0,9.9,0,8.6,0
2005/3/2,3:45,1.7,0,57,0,7,0,67.9,0,10.7,0,9.7,0,8.5,0
2005/3/2,4:00,1.6,0,59,0,6.7,0,68.5,0,10.7,0,9.5,0,8.4,0
2005/3/2,4:15,1.7,0,58,0,6.5,0,68.6,0,10.7,0,9.3,0,8.3,0
2005/3/2,4:30,1.7,0,57,0,6.3,0,68.9,0,10.6,0,9.1,0,8.3,0
2005/3/2,4:45,1.8,0,57,0,6.2,0,68.8,0,10.6,0,8.9,0,8.2,0
2005/3/2,5:00,1.5,0,59,0,6.2,0,68.5,0,10.6,0,8.7,0,8,0
2005/3/2,5:15,1.7,0,59,0,6,0,68.4,0,10.6,0,8.5,0,7.9,0
2005/3/2,5:30,1.7,0,58,0,5.9,0,68.4,0,10.6,0,8.3,0,7.8,0
2005/3/2,5:45,1.5,0,60,0,5.7,0,68.3,0,10.6,0,8.2,0,7.8,0
2005/3/2,6:00,1.4,0,58,0,5.6,0,68.3,0,10.6,0,8.1,0,7.7,0
2005/3/2,6:15,1.5,0,59,0,5.4,0,68.7,0,10.6,0,8,0,7.6,0
2005/3/2,6:30,1.3,0,60,0,5.3,0,68.8,0,10.5,0,7.8,0,7.5,0
2005/3/2,6:45,1.3,0,59,0,5.2,0,69.1,0,10.5,0,7.7,0,7.4,0
2005/3/2,7:00,1.4,0,59,0,5.1,0,69.2,0,10.5,0,7.5,0,7.3,0
2005/3/2,7:15,1.6,0,59,0,4.9,0,68.9,0,10.5,0,7.4,0,7.2,0
2005/3/2,7:30,1.7,0,59,0,4.9,0,68.9,0,10.4,0,7.3,0,7.2,0
2005/3/2,7:45,2.2,0,57,0,6.1,0,72.4,0,10.4,0,7.2,0,7.1,0
2005/3/2,8:00,2.8,0,56,0,7.3,0,69,0,10.4,0,7,0,7,0
2005/3/2,8:15,3.6,0,53,0,8.7,0,68.1,0,10.4,0,6.9,0,6.9,0
2005/3/2,8:30,4.5,0,48,0,10.1,0,65.4,0,10.2,0,7.1,0,6.9,0
2005/3/2,8:45,5.8,0,42,0,11,0,62.5,0,10.4,0,8.1,0,6.9,0
2005/3/2,9:00,6.5,0,40,0,12.7,0,56.8,0,10.4,0,8.9,0,6.8,0
2005/3/2,9:15,6.5,0,40,0,13.5,0,52.1,0,10.4,0,9.9,0,6.9,0
2005/3/2,9:30,6.9,0,41,0,14.2,0,52.9,0,10.3,0,11.2,0,7,0
2005/3/2,9:45,7.9,0,40,0,18,0,41,0,10.3,0,11.7,0,7.3,0
2005/3/2,10:00,8.2,0,40,0,20.7,0,32.7,0,10.3,0,11.9,0,7.7,0
2005/3/2,10:15,8.3,0,40,0,22.6,0,28.4,0,10.4,0,12.9,0,7.9,0
2005/3/2,10:30,8.6,0,41,0,23.4,0,27.9,0,10.8,0,13.1,0,8,0
2005/3/2,10:45,8.9,0,40,0,21.3,0,31.3,0,10.8,0,13.2,0,8.2,0
2005/3/2,11:00,9.2,0,40,0,19.5,0,40.3,0,10.7,0,13.7,0,8.3,0
2005/3/2,11:15,10.2,0,41,0,18.8,0,42,0,10.7,0,14.2,0,8.6,0
2005/3/2,11:30,10.8,0,43,0,17.7,0,43.2,0,10.7,0,15.2,0,9.7,0
2005/3/2,11:45,11.3,0,43,0,17.3,0,43.3,0,10.6,0,16,0,10.4,0
2005/3/2,12:00,11.6,0,38,0,17.1,0,43.2,0,10.6,0,16.4,0,10.3,0
2005/3/2,12:15,11.8,0,37,0,18.4,0,44,0,10.6,0,15.8,0,10.3,0
2005/3/2,12:30,11.8,0,37,0,17.8,0,42.6,0,10.4,0,15.4,0,10.7,0
2005/3/2,12:45,11.8,0,34,0,17.6,0,42.7,0,10.4,0,15.2,0,10.7,0
2005/3/2,13:00,11.7,0,32,0,17.2,0,42.6,0,10.5,0,15.7,0,10.8,0
2005/3/2,13:15,11.9,0,32,0,17.1,0,42.5,0,10.5,0,16.1,0,10.9,0
2005/3/2,13:30,12,0,31,0,17.2,0,41.8,0,10.4,0,15.9,0,11,0
2005/3/2,13:45,12.4,0,31,0,17.3,0,41.1,0,10.4,0,15.7,0,11,0
2005/3/2,14:00,12.4,0,31,0,17.4,0,40.6,0,10.4,0,15.5,0,11,0
2005/3/2,14:15,12.3,0,30,0,17.4,0,40.4,0,10.4,0,15.5,0,11.1,0
2005/3/2,14:30,12.4,0,31,0,17.3,0,40.4,0,10.4,0,15.5,0,11.2,0
2005/3/2,14:45,12.2,0,31,0,17.3,0,40.6,0,10.4,0,15.6,0,11.3,0
2005/3/2,15:00,12.1,0,33,0,17.1,0,40.8,0,10.4,0,15.7,0,11.4,0
2005/3/2,15:15,11.6,0,34,0,16.7,0,41.3,0,10.4,0,15.7,0,11.4,0
2005/3/2,15:30,11.6,0,36,0,16.4,0,41.9,0,10.4,0,15.7,0,11.5,0
2005/3/2,15:45,11.5,0,36,0,16,0,43.1,0,10.4,0,15.6,0,11.5,0
2005/3/2,16:00,11.2,0,37,0,15.5,0,43.6,0,10.4,0,15.5,0,11.6,0
2005/3/2,16:15,11,0,38,0,15.1,0,44.7,0,10.4,0,15.4,0,11.6,0
2005/3/2,16:30,10.9,0,38,0,14.7,0,46.6,0,10.4,0,15.2,0,11.6,0
2005/3/2,16:45,11,0,41,0,14.4,0,48.3,0,10.6,0,14.9,0,11.6,0
2005/3/2,17:00,10.8,0,42,0,14.3,0,50,0,10.7,0,14.7,0,11.6,0
2005/3/2,17:15,10.6,0,43,0,15.4,0,51.9,0,10.7,0,14.5,0,11.6,0
2005/3/2,17:30,10.6,0,46,0,15.9,0,51.5,0,10.7,0,14.3,0,11.6,0
2005/3/2,17:45,10.4,0,47,0,15.9,0,54.1,0,10.7,0,14.1,0,11.6,0
2005/3/2,18:00,10.2,0,49,0,16.2,0,53.9,0,10.7,0,15.5,0,11.5,0
2005/3/2,18:15,9.9,0,50,0,14.9,0,49.2,0,10.8,0,16.3,0,11.4,0
2005/3/2,18:30,9.6,0,51,0,15.1,0,50.6,0,10.8,0,16.5,0,11.4,0
2005/3/2,18:45,9.5,0,51,0,18,0,43.6,0,10.8,0,16.4,0,11.3,0
2005/3/2,19:00,9.4,0,52,0,19.1,0,43.5,0,10.9,0,16.1,0,11.4,0
2005/3/2,19:15,9.3,0,52,0,19.4,0,43.2,0,10.9,0,14.9,0,11.3,0
2005/3/2,19:30,8.9,0,54,0,19.3,0,44,0,10.9,0,15,0,11.5,0
2005/3/2,19:45,8.8,0,55,0,19,0,45.7,0,10.9,0,16.2,0,11.4,0
2005/3/2,20:00,8.8,0,55,0,18.9,0,46.8,0,10.9,0,16.9,0,11.4,0
2005/3/2,20:15,8.7,0,54,0,19,0,47.1,0,10.9,0,17.3,0,11.4,0
2005/3/2,20:30,8.7,0,53,0,19,0,46.9,0,10.9,0,17.5,0,11.4,0
2005/3/2,20:45,8.7,0,55,0,19,0,46.9,0,10.9,0,17.6,0,11.4,0
2005/3/2,21:00,8.4,0,56,0,19,0,45.8,0,11,0,17.7,0,11.4,0
2005/3/2,21:15,8.4,0,55,0,19.1,0,46.5,0,11,0,17.8,0,11.5,0
2005/3/2,21:30,8.2,0,66,0,19,0,44.5,0,11,0,17.8,0,11.5,0
2005/3/2,21:45,7.9,0,73,0,18.9,0,43.3,0,11,0,17.7,0,11.7,0
2005/3/2,22:00,7.7,0,75,0,18.7,0,45.7,0,11,0,17.5,0,11.5,0
2005/3/2,22:15,7.6,0,77,0,18.8,0,46.6,0,11,0,16.8,0,11.3,0
2005/3/2,22:30,7.8,0,77,0,18.7,0,45.4,0,10.9,0,16.6,0,11.2,0
2005/3/2,22:45,7.6,0,80,0,18.7,0,46.5,0,10.9,0,17.2,0,11.4,0
2005/3/2,23:00,7.6,0,81,0,19,0,46,0,10.9,0,17.6,0,11.5,0
2005/3/2,23:15,7.5,0,76,0,19.1,0,48.2,0,10.9,0,17.1,0,11.4,0
2005/3/2,23:30,7.4,0,71,0,19.2,0,49.8,0,10.9,0,17.4,0,11.9,0
2005/3/2,23:45,7.6,0,70,0,18.8,0,52.8,0,10.7,0,17.2,0,12.1,0
2005/3/3,0:00,7.6,0,66,0,18.5,0,53.3,0,10.7,0,17.6,0,12.5,0
2005/3/3,0:15,7.7,0,66,0,18.6,0,49.3,0,10.7,0,17.8,0,13.4,0
2005/3/3,0:30,7.6,0,68,0,18.5,0,47.2,0,10.7,0,17.9,0,13.6,0
2005/3/3,0:45,7.8,0,65,0,18.5,0,45.8,0,10.7,0,17.7,0,13.5,0
2005/3/3,1:00,7.9,0,62,0,17.1,0,44.8,0,10.8,0,16.6,0,13.4,0
2005/3/3,1:15,7.9,0,63,0,14.8,0,47.3,0,10.8,0,16.2,0,13.1,0
2005/3/3,1:30,7.9,0,65,0,13.9,0,50.1,0,10.8,0,15.9,0,12.9,0
2005/3/3,1:45,7.8,0,70,0,13.3,0,52.5,0,10.8,0,15.6,0,13.1,0
2005/3/3,2:00,7.9,0,69,0,13.1,0,56.2,0,10.8,0,14.6,0,12.9,0
2005/3/3,2:15,8,0,69,0,12.9,0,57.4,0,10.8,0,13.9,0,12.6,0
2005/3/3,2:30,8.1,0,67,0,12.6,0,58.2,0,10.9,0,13.4,0,12.8,0
2005/3/3,2:45,8,0,64,0,12.4,0,59.1,0,10.9,0,13.5,0,12.9,0
2005/3/3,3:00,7.9,0,67,0,12.1,0,59.4,0,10.9,0,13.7,0,12.7,0
2005/3/3,3:15,7.8,0,69,0,11.9,0,60,0,10.9,0,13.6,0,12.6,0
2005/3/3,3:30,7.9,0,69,0,11.7,0,60.9,0,10.9,0,13.5,0,12.5,0
2005/3/3,3:45,7.9,0,70,0,11.5,0,61.6,0,11,0,13.3,0,12.3,0
2005/3/3,4:00,7.9,0,71,0,11.3,0,61.5,0,11,0,13.1,0,12.2,0
2005/3/3,4:15,7.9,0,71,0,11.1,0,62.1,0,11,0,13,0,12,0
2005/3/3,4:30,7.9,0,69,0,11,0,62.5,0,11,0,12.8,0,11.9,0
2005/3/3,4:45,7.6,0,69,0,10.8,0,62.3,0,11,0,12.6,0,11.8,0
2005/3/3,5:00,7.6,0,69,0,10.7,0,62.4,0,11.1,0,12.5,0,11.7,0
2005/3/3,5:15,7.5,0,71,0,10.5,0,62.8,0,11.1,0,12.4,0,11.6,0
2005/3/3,5:30,7.3,0,72,0,10.4,0,63.7,0,11.1,0,12.2,0,11.6,0
2005/3/3,5:45,7.3,0,74,0,10.2,0,64.1,0,11.1,0,12.1,0,11.5,0
2005/3/3,6:00,7.3,0,76,0,10.1,0,64.4,0,11.2,0,11.9,0,11.4,0
2005/3/3,6:15,7.1,0,77,0,12,0,72.7,0,11.2,0,11.8,0,11.3,0
2005/3/3,6:30,7,0,79,0,13,0,74.1,0,11.2,0,11.6,0,11.2,0
2005/3/3,6:45,7,0,79,0,13.2,0,71.9,0,11,0,11.5,0,11.1,0
2005/3/3,7:00,7,0,79,0,12,0,68.5,0,11,0,12.9,0,11.8,0
2005/3/3,7:15,7.2,0,77,0,11.5,0,68.9,0,11,0,14.1,0,11.8,0
2005/3/3,7:30,7.2,0,77,0,11.1,0,69.2,0,11,0,14.7,0,12.5,0
2005/3/3,7:45,7.3,0,77,0,10.8,0,69.9,0,11,0,13.9,0,12.1,0
2005/3/3,8:00,7.3,0,77,0,10.7,0,69.4,0,11,0,13.3,0,11.9,0
2005/3/3,8:15,7.6,0,77,0,10.6,0,69.3,0,11.1,0,12.8,0,11.7,0
2005/3/3,8:30,7.9,0,76,0,10.7,0,68.1,0,11.1,0,12.5,0,11.6,0
2005/3/3,8:45,8.2,0,74,0,10.9,0,67.1,0,11.1,0,12.3,0,11.4,0
2005/3/3,9:00,8.4,0,74,0,11.1,0,65.7,0,11.1,0,12.2,0,11.3,0
2005/3/3,9:15,8.9,0,70,0,12.8,0,70.9,0,11.1,0,12.1,0,11.3,0
2005/3/3,9:30,9.3,0,66,0,14.5,0,69.9,0,11.1,0,12.2,0,11.3,0
2005/3/3,9:45,9.5,0,65,0,16,0,67.6,0,11.2,0,12.2,0,11.3,0
2005/3/3,10:00,9.7,0,63,0,16.3,0,65.9,0,10.8,0,13,0,11.3,0
2005/3/3,10:15,9.7,0,62,0,17.1,0,69.4,0,10.8,0,14.6,0,11.4,0
2005/3/3,10:30,9.9,0,61,0,17.5,0,67.8,0,10.8,0,15.9,0,11.6,0
2005/3/3,10:45,10.1,0,58,0,17.9,0,67.8,0,10.8,0,16.8,0,11.6,0
2005/3/3,11:00,10.4,0,58,0,16.7,0,61.5,0,10.9,0,17.8,0,11.7,0
2005/3/3,11:15,10.6,0,51,0,15.8,0,57.4,0,10.9,0,18.4,0,11.9,0
2005/3/3,11:30,11.3,0,48,0,15.8,0,58.1,0,10.9,0,18.7,0,11.9,0
2005/3/3,11:45,11.5,0,45,0,15.4,0,51.7,0,10.9,0,18.4,0,12.1,0
2005/3/3,12:00,10.7,0,47,0,15.7,0,48.9,0,10.9,0,17.4,0,12.2,0
2005/3/3,12:15,10.4,0,50,0,14.3,0,48.4,0,10.9,0,17,0,12.3,0
2005/3/3,12:30,10.3,0,51,0,15,0,54.2,0,10.9,0,16.8,0,12.4,0
2005/3/3,12:45,10.2,0,50,0,14.6,0,54.5,0,11,0,16.7,0,12.6,0
2005/3/3,13:00,9.9,0,54,0,14,0,55.6,0,10.8,0,15.6,0,12.6,0
2005/3/3,13:15,9.5,0,58,0,13.9,0,55.4,0,10.9,0,15.2,0,12.8,0
2005/3/3,13:30,9.7,0,58,0,13.6,0,56,0,10.9,0,15.7,0,12.6,0
2005/3/3,13:45,8.4,0,68,0,14.7,0,58.4,0,10.9,0,15.1,0,12.5,0
2005/3/3,14:00,7.9,0,77,0,13.9,0,57.6,0,10.9,0,14.9,0,12.7,0
2005/3/3,14:15,7.6,0,82,0,13.1,0,59.6,0,10.7,0,14.5,0,12.5,0
2005/3/3,14:30,7.9,0,84,0,13.1,0,63.8,0,10.8,0,15.4,0,12.3,0
2005/3/3,14:45,8.4,0,86,0,14.4,0,68.2,0,10.8,0,14.9,0,12.2,0
2005/3/3,15:00,8.8,0,85,0,14.9,0,66.4,0,10.8,0,13.9,0,12,0
2005/3/3,15:15,9.1,0,80,0,14.4,0,64.6,0,10.6,0,13.5,0,12,0
2005/3/3,15:30,9.2,0,75,0,14.3,0,64.2,0,10.6,0,14.9,0,13.2,0
2005/3/3,15:45,8.9,0,77,0,14.7,0,64.9,0,10.6,0,15.9,0,13.5,0
2005/3/3,16:00,8.7,0,81,0,16.1,0,66.2,0,10.6,0,15.5,0,13.2,0
2005/3/3,16:15,8.4,0,79,0,15.3,0,69.1,0,10.7,0,15.2,0,13,0
2005/3/3,16:30,8.2,0,78,0,14.4,0,70.8,0,10.6,0,14.9,0,12.9,0
2005/3/3,16:45,8.1,0,80,0,13.9,0,73.2,0,10.7,0,16.1,0,12.8,0
2005/3/3,17:00,8.1,0,80,0,13.3,0,74.6,0,10.7,0,16.5,0,12.7,0
2005/3/3,17:15,8.2,0,81,0,13.1,0,74.7,0,10.7,0,15.8,0,12.7,0
2005/3/3,17:30,8.1,0,81,0,12.8,0,75.7,0,10.7,0,15.1,0,12.5,0
2005/3/3,17:45,8,0,83,0,12.8,0,75.6,0,10.7,0,14.7,0,12.4,0
2005/3/3,18:00,7.6,0,84,0,12.6,0,75.1,0,10.8,0,14.5,0,12.3,0
2005/3/3,18:15,7.6,0,86,0,12.3,0,75.8,0,10.8,0,14.3,0,12.2,0
2005/3/3,18:30,7.1,0,84,0,12.1,0,77.6,0,10.7,0,14.1,0,12.1,0
2005/3/3,18:45,7,0,84,0,13.4,0,78.6,0,10.7,0,13.9,0,12,0
2005/3/3,19:00,6.9,0,85,0,13.6,0,79.1,0,10.8,0,13.7,0,11.9,0
2005/3/3,19:15,6.9,0,85,0,13.3,0,75.7,0,10.8,0,13.5,0,11.8,0
2005/3/3,19:30,6.8,0,86,0,13.2,0,72,0,10.8,0,14.4,0,11.8,0
2005/3/3,19:45,6.5,0,87,0,13.2,0,70.1,0,10.7,0,15.1,0,11.8,0
2005/3/3,20:00,6.5,0,88,0,13.2,0,69.8,0,10.7,0,14.6,0,11.7,0
2005/3/3,20:15,6.6,0,88,0,13.6,0,74,0,10.7,0,14.2,0,11.5,0
2005/3/3,20:30,6.6,0,89,0,13.4,0,70.7,0,10.7,0,14.1,0,11.3,0
2005/3/3,20:45,6.8,0,87,0,13.3,0,71.5,0,10.7,0,14,0,11.2,0
2005/3/3,21:00,6.7,0,84,0,13.5,0,72.8,0,10.7,0,14.8,0,11.1,0
2005/3/3,21:15,6.8,0,82,0,13.6,0,71.4,0,10.6,0,15.1,0,11.1,0
2005/3/3,21:30,6.9,0,80,0,13.7,0,71.3,0,10.6,0,14.7,0,11,0
2005/3/3,21:45,6.9,0,79,0,14.1,0,74.8,0,10.6,0,15,0,10.9,0
2005/3/3,22:00,6.7,0,79,0,14.3,0,77.9,0,10.7,0,14.7,0,10.8,0
2005/3/3,22:15,6.6,0,79,0,14.4,0,79.6,0,10.7,0,14.5,0,10.8,0
2005/3/3,22:30,6.6,0,77,0,14.3,0,76.9,0,10.7,0,15.1,0,10.8,0
2005/3/3,22:45,6.6,0,75,0,14.3,0,79.4,0,10.7,0,15.7,0,10.8,0
2005/3/3,23:00,6.7,0,72,0,14.5,0,80.9,0,10.7,0,16.1,0,10.9,0
2005/3/3,23:15,6.7,0,64,0,14.7,0,81.5,0,10.4,0,16,0,11.2,0
2005/3/3,23:30,6.8,0,61,0,14.5,0,77,0,10.5,0,15.9,0,11.3,0
2005/3/3,23:45,6.8,0,58,0,14.7,0,77.3,0,10.5,0,16.1,0,11.3,0
2005/3/4,0:00,6.7,0,56,0,14.4,0,79.6,0,10.5,0,16.8,0,11.3,0
2005/3/4,0:15,6.9,0,52,0,15.5,0,76.1,0,10.5,0,16.7,0,11.3,0
2005/3/4,0:30,6.8,0,50,0,16,0,73.1,0,10.4,0,16.9,0,12,0
2005/3/4,0:45,6.9,0,48,0,16.3,0,71,0,10.5,0,16.9,0,13.6,0
2005/3/4,1:00,6.9,0,46,0,16.5,0,69.7,0,10.6,0,16.3,0,12.9,0
2005/3/4,1:15,6.8,0,47,0,16.6,0,68,0,10.6,0,16.8,0,12.8,0
2005/3/4,1:30,7,0,44,0,14.4,0,66.4,0,10.6,0,16.8,0,12.8,0
2005/3/4,1:45,6.9,0,44,0,13.7,0,68.9,0,10.6,0,16.9,0,12.7,0
2005/3/4,2:00,6.9,0,44,0,13,0,71,0,10.6,0,17,0,12.8,0
2005/3/4,2:15,7,0,45,0,12.6,0,72.7,0,10.6,0,16.2,0,12.6,0
2005/3/4,2:30,6.8,0,47,0,12.2,0,73.8,0,10.6,0,15.4,0,12.5,0
2005/3/4,2:45,6.8,0,46,0,11.8,0,74.6,0,10.7,0,14.7,0,12.5,0
2005/3/4,3:00,6.7,0,53,0,11.6,0,74.9,0,10.7,0,14.3,0,12.3,0
2005/3/4,3:15,6.6,0,57,0,11.2,0,74.9,0,10.7,0,13.9,0,12.1,0
2005/3/4,3:30,6.4,0,60,0,11,0,75,0,10.7,0,13.4,0,12,0
2005/3/4,3:45,6.1,0,59,0,10.8,0,75.7,0,10.7,0,13.3,0,11.8,0
2005/3/4,4:00,6.1,0,59,0,10.4,0,75.9,0,10.8,0,12.9,0,11.7,0
2005/3/4,4:15,5.9,0,59,0,10.2,0,76.6,0,10.8,0,12.7,0,11.6,0
2005/3/4,4:30,6,0,58,0,10,0,77.1,0,10.8,0,12.4,0,11.5,0
2005/3/4,4:45,5.8,0,58,0,9.8,0,77.2,0,10.8,0,12.2,0,11.3,0
2005/3/4,5:00,5.9,0,58,0,9.8,0,77.3,0,10.8,0,12,0,11.2,0
2005/3/4,5:15,6.1,0,59,0,9.6,0,77.7,0,10.8,0,11.8,0,11.1,0
2005/3/4,5:30,5.7,0,66,0,9.5,0,77.2,0,10.8,0,11.6,0,11,0
2005/3/4,5:45,5.5,0,71,0,9.5,0,77.7,0,10.9,0,11.5,0,10.9,0
2005/3/4,6:00,5.3,0,68,0,9.4,0,78.1,0,10.9,0,11.4,0,10.8,0
2005/3/4,6:15,4.8,0,69,0,9.3,0,78,0,10.9,0,11.3,0,10.8,0
2005/3/4,6:30,4.5,0,69,0,9,0,78.6,0,10.9,0,11.2,0,10.7,0
2005/3/4,6:45,4.2,0,76,0,8.7,0,79.6,0,10.9,0,11.2,0,10.6,0
2005/3/4,7:00,4.4,0,77,0,8.5,0,81.2,0,10.9,0,11,0,10.5,0
2005/3/4,7:15,4.5,0,78,0,8.3,0,81.3,0,10.9,0,10.7,0,10.4,0
2005/3/4,7:30,4.7,0,78,0,8.2,0,81.1,0,10.9,0,10.4,0,10.3,0
2005/3/4,7:45,4.9,0,81,0,8.2,0,80.4,0,11,0,10.2,0,10.1,0
2005/3/4,8:00,4.2,0,80,0,8.4,0,79.5,0,11,0,9.9,0,10,0
2005/3/4,8:15,3.8,0,81,0,8.4,0,79.1,0,11,0,9.8,0,9.9,0
2005/3/4,8:30,4.1,0,82,0,8.2,0,79.7,0,11,0,9.8,0,9.9,0
2005/3/4,8:45,4.4,0,81,0,8,0,80.4,0,11,0,9.9,0,9.9,0
2005/3/4,9:00,4.6,0,82,0,8,0,80.3,0,11,0,9.9,0,9.8,0
2005/3/4,9:15,5,0,83,0,8.5,0,81.3,0,11,0,9.7,0,9.7,0
2005/3/4,9:30,5.2,0,81,0,11.6,0,83.9,0,11,0,9.6,0,9.7,0
2005/3/4,9:45,6,0,77,0,13.3,0,83.5,0,11,0,9.6,0,9.6,0
2005/3/4,10:00,6.2,0,69,0,14,0,79.8,0,10.3,0,9.7,0,9.6,0
2005/3/4,10:15,6.1,0,62,0,16.2,0,68.9,0,10.3,0,11.6,0,9.7,0
2005/3/4,10:30,6.7,0,57,0,14.6,0,67.5,0,10.3,0,13.7,0,9.8,0
2005/3/4,10:45,8.2,0,48,0,14.3,0,68.7,0,10.4,0,14.4,0,9.9,0
2005/3/4,11:00,7.8,0,46,0,16.9,0,59.4,0,10.4,0,14.8,0,10.1,0
2005/3/4,11:15,7.3,0,46,0,18.4,0,47.8,0,10.4,0,14.6,0,10,0
2005/3/4,11:30,7.1,0,43,0,17.6,0,49.8,0,10.4,0,14.7,0,9.9,0
2005/3/4,11:45,7.3,0,42,0,17.7,0,54.4,0,10.4,0,15.1,0,10.2,0
2005/3/4,12:00,8,0,38,0,17.7,0,57.1,0,10.4,0,14.6,0,10.4,0
2005/3/4,12:15,8.2,0,34,0,18,0,56.9,0,10.4,0,14.8,0,10.4,0
2005/3/4,12:30,8.2,0,33,0,17,0,50.8,0,10.4,0,15.7,0,10.5,0
2005/3/4,12:45,8.2,0,35,0,16.4,0,44.1,0,10.4,0,16.3,0,10.6,0
2005/3/4,13:00,8.2,0,35,0,16.2,0,42.7,0,10.1,0,16.4,0,10.6,0
2005/3/4,13:15,7.6,0,34,0,15.7,0,39.8,0,10.1,0,16.1,0,10.7,0
2005/3/4,13:30,8.4,0,34,0,15.6,0,41.2,0,10.1,0,15,0,10.8,0
2005/3/4,13:45,8.1,0,34,0,15.1,0,39.9,0,10.1,0,14.5,0,10.9,0
2005/3/4,14:00,8.4,0,33,0,15.1,0,38.6,0,10.4,0,14.1,0,11.6,0
2005/3/4,14:15,7.9,0,32,0,14.7,0,38.5,0,10.4,0,13.9,0,11.5,0
2005/3/4,14:30,8.5,0,30,0,14.3,0,37,0,10.4,0,13.8,0,11.5,0
2005/3/4,14:45,8.2,0,28,0,14.3,0,42.6,0,10.5,0,13.7,0,11.5,0
2005/3/4,15:00,8.2,0,29,0,14.1,0,45.2,0,10.5,0,13.7,0,11.7,0
2005/3/4,15:15,8.2,0,32,0,13.9,0,46.4,0,10.5,0,13.6,0,11.6,0
2005/3/4,15:30,8.4,0,31,0,13.6,0,48,0,10.5,0,13.4,0,11.5,0
2005/3/4,15:45,8.1,0,30,0,13.5,0,48.8,0,10.5,0,13.3,0,11.4,0
2005/3/4,16:00,7.9,0,30,0,13.4,0,49.5,0,10.6,0,13.3,0,11.3,0
2005/3/4,16:15,7.9,0,30,0,13.3,0,52.5,0,10.6,0,13.2,0,11.3,0
2005/3/4,16:30,7.9,0,30,0,13,0,52.1,0,10.7,0,13.1,0,11.3,0
2005/3/4,16:45,7.8,0,30,0,12.7,0,51.5,0,10.7,0,13.1,0,11.6,0
2005/3/4,17:00,7.6,0,31,0,12.6,0,51,0,10.7,0,13.1,0,11.5,0
2005/3/4,17:15,7.4,0,32,0,12.2,0,51.5,0,10.7,0,13,0,11.4,0
2005/3/4,17:30,7.4,0,32,0,11.9,0,51.7,0,10.8,0,12.8,0,11.3,0
2005/3/4,17:45,7,0,31,0,11.9,0,52.8,0,10.8,0,12.7,0,11.2,0
2005/3/4,18:00,6.8,0,34,0,16.8,0,40.6,0,10.8,0,12.6,0,11,0
2005/3/4,18:15,6.7,0,35,0,17.8,0,39,0,10.9,0,12.5,0,10.9,0
2005/3/4,18:30,6.4,0,37,0,17.3,0,41.1,0,10.9,0,12.3,0,10.8,0
2005/3/4,18:45,6.1,0,37,0,17.3,0,40.7,0,11,0,12.9,0,11.1,0
2005/3/4,19:00,5.9,0,38,0,17.2,0,41.9,0,11,0,13.6,0,11,0
2005/3/4,19:15,6.1,0,37,0,16.5,0,45.2,0,11.1,0,14.1,0,10.9,0
2005/3/4,19:30,6.1,0,39,0,15.1,0,44.9,0,11.1,0,14.4,0,10.8,0
2005/3/4,19:45,5.8,0,43,0,13.2,0,49.7,0,11.1,0,14.7,0,10.7,0
2005/3/4,20:00,5.6,0,43,0,12.3,0,52.9,0,11.1,0,15.2,0,10.7,0
2005/3/4,20:15,5.3,0,47,0,11.6,0,54.8,0,11,0,15.5,0,10.8,0
2005/3/4,20:30,5.1,0,51,0,11,0,56.7,0,11,0,14.6,0,10.7,0
2005/3/4,20:45,4.8,0,50,0,12.4,0,63.3,0,11,0,13.8,0,10.7,0
2005/3/4,21:00,4.5,0,53,0,13.2,0,66.2,0,11,0,13.3,0,10.6,0
2005/3/4,21:15,4.3,0,53,0,13.3,0,66.6,0,11,0,12.8,0,10.5,0
2005/3/4,21:30,3.9,0,56,0,13.5,0,69.8,0,11,0,13.2,0,10.4,0
2005/3/4,21:45,4,0,54,0,13.3,0,68.8,0,11,0,14.3,0,10.4,0
2005/3/4,22:00,4,0,51,0,13.5,0,72.2,0,11,0,14.6,0,10.4,0
2005/3/4,22:15,3.6,0,52,0,13.5,0,75,0,11,0,15.1,0,10.5,0
2005/3/4,22:30,3.5,0,50,0,13.5,0,76.6,0,11,0,14.8,0,10.8,0
2005/3/4,22:45,3.5,0,50,0,13.4,0,77.9,0,11.1,0,15.2,0,10.6,0
2005/3/4,23:00,3.4,0,52,0,13.2,0,78.1,0,11.1,0,15.5,0,10.5,0
2005/3/4,23:15,3.1,0,55,0,13.3,0,80.2,0,11.1,0,15.6,0,10.4,0
2005/3/4,23:30,2.9,0,56,0,13.4,0,80.6,0,11.1,0,15.7,0,10.4,0
2005/3/4,23:45,2.6,0,58,0,13.4,0,80.9,0,10.8,0,15.6,0,10.7,0
2005/3/5,0:00,2.1,0,60,0,13.1,0,79,0,10.8,0,15.7,0,10.4,0
2005/3/5,0:15,2,0,61,0,11.3,0,79.4,0,10.8,0,15.8,0,10.3,0
2005/3/5,0:30,2,0,61,0,12.6,0,72.1,0,10.8,0,15.9,0,10.2,0
2005/3/5,0:45,2.2,0,60,0,13.2,0,68.6,0,10.6,0,15.7,0,10.1,0
2005/3/5,1:00,2.5,0,57,0,11.3,0,66.3,0,10.5,0,14.5,0,10.6,0
2005/3/5,1:15,2.8,0,53,0,9.9,0,70.7,0,10.6,0,14.2,0,10.4,0
2005/3/5,1:30,2.7,0,53,0,9.4,0,72.8,0,10.6,0,14.3,0,10.8,0
2005/3/5,1:45,2.4,0,59,0,8.9,0,73.7,0,10.6,0,13.8,0,10.4,0
2005/3/5,2:00,2,0,60,0,8.7,0,74.7,0,10.5,0,12.7,0,10.4,0
2005/3/5,2:15,1.9,0,61,0,8.4,0,75.3,0,10.6,0,12.2,0,10.6,0
2005/3/5,2:30,2.3,0,57,0,8.1,0,76.1,0,10.6,0,11.7,0,11,0
2005/3/5,2:45,2.5,0,54,0,7.7,0,76.6,0,10.6,0,11.3,0,10.6,0
2005/3/5,3:00,2.1,0,59,0,7.5,0,76.5,0,10.6,0,10.9,0,10.3,0